International Skating Union - Official Site

ISU World Cup Heerenveen
December 12-14, 2014

Draw | Lap Times | Index | World Cup

Referee: Daniel  CABELDUC  (SWE)
Starter: Jyrki  JÄÄSKELÄINEN  (FIN)
StartTime: EndTime: Air Temp: Ice Temp: Humidity:
15:46 16:29 11℃ -7.3℃ 38%
Result 3000m Ladies Division A
Rankings as of Dec 13 2014 5:05PM
Rank: No.: Name: Nation: Time: Behind: Points:
1 25 Martina  Sábliková CZE CZE 4:02.84200m - 20.22 - (20.2)
600m - 51.11 - (30.8)
1000m - 1:22.63 - (31.5)
1400m - 1:54.28 - (31.6)
1800m - 2:26.05 - (31.7)
2200m - 2:58.03 - (31.9)
2600m - 3:30.30 - (32.2)
3000m - 4:02.84 - (32.5)
100
2 80 Ireen  Wüst NED NED 4:03.14200m - 19.59 - (19.6)
600m - 50.23 - (30.6)
1000m - 1:21.59 - (31.3)
1400m - 1:53.29 - (31.7)
1800m - 2:25.11 - (31.8)
2200m - 2:57.31 - (32.2)
2600m - 3:30.16 - (32.8)
3000m - 4:03.14 - (32.9)
0.30 80
3 61 Carlijn  Achtereekte NED NED 4:05.95200m - 19.79 - (19.8)
600m - 50.49 - (30.7)
1000m - 1:22.42 - (31.9)
1400m - 1:54.67 - (32.2)
1800m - 2:27.21 - (32.5)
2200m - 3:00.24 - (33.0)
2600m - 3:33.06 - (32.8)
3000m - 4:05.95 - (32.8)
3.11 70
4 5 Ivanie  Blondin CAN CAN 4:06.33200m - 19.97 - (19.9)
600m - 51.41 - (31.4)
1000m - 1:23.23 - (31.8)
1400m - 1:55.11 - (31.8)
1800m - 2:27.09 - (31.9)
2200m - 2:59.53 - (32.4)
2600m - 3:32.39 - (32.8)
3000m - 4:06.33 - (33.9)
3.49 60
5 35 Claudia  Pechstein GER GER 4:07.16200m - 20.59 - (20.6)
600m - 51.90 - (31.3)
1000m - 1:23.51 - (31.6)
1400m - 1:55.51 - (32.0)
1800m - 2:27.95 - (32.4)
2200m - 3:00.79 - (32.8)
2600m - 3:33.83 - (33.0)
3000m - 4:07.16 - (33.3)
4.32 50
6 92 Olga  Graf RUS RUS 4:08.24200m - 20.93 - (20.9)
600m - 52.60 - (31.6)
1000m - 1:24.57 - (31.9)
1400m - 1:56.64 - (32.0)
1800m - 2:28.82 - (32.1)
2200m - 3:01.64 - (32.8)
2600m - 3:34.79 - (33.1)
3000m - 4:08.24 - (33.4)
5.40 45
7 67 Marije  Joling NED NED 4:08.62200m - 19.76 - (19.7)
600m - 51.13 - (31.3)
1000m - 1:23.23 - (32.1)
1400m - 1:55.43 - (32.2)
1800m - 2:28.45 - (33.0)
2200m - 3:02.12 - (33.6)
2600m - 3:35.43 - (33.3)
3000m - 4:08.62 - (33.1)
5.78 40
8 70 Carien  Kleibeuker NED NED 4:08.66200m - 21.34 - (21.3)
600m - 52.68 - (31.3)
1000m - 1:24.38 - (31.7)
1400m - 1:56.88 - (32.5)
1800m - 2:29.61 - (32.7)
2200m - 3:02.29 - (32.6)
2600m - 3:35.35 - (33.0)
3000m - 4:08.66 - (33.3)
5.82 35
9 77 Jorien  Voorhuis NED NED 4:08.92200m - 20.45 - (20.4)
600m - 51.92 - (31.4)
1000m - 1:24.09 - (32.1)
1400m - 1:56.56 - (32.4)
1800m - 2:29.57 - (33.0)
2200m - 3:02.43 - (32.8)
2600m - 3:35.40 - (32.9)
3000m - 4:08.92 - (33.5)
6.08 30
10 48 Nana  Takagi JPN JPN 4:09.72200m - 20.08 - (20.0)
600m - 51.55 - (31.4)
1000m - 1:23.27 - (31.7)
1400m - 1:55.57 - (32.3)
1800m - 2:28.35 - (32.7)
2200m - 3:01.67 - (33.3)
2600m - 3:35.25 - (33.5)
3000m - 4:09.72 - (34.4)
6.88 25
11 89 Anna  Chernova RUS RUS 4:11.93200m - 21.12 - (21.1)
600m - 53.18 - (32.0)
1000m - 1:25.60 - (32.4)
1400m - 1:58.22 - (32.6)
1800m - 2:30.87 - (32.6)
2200m - 3:04.12 - (33.2)
2600m - 3:37.84 - (33.7)
3000m - 4:11.93 - (34.0)
9.09 21
12 33 Bente  Kraus GER GER 4:12.22200m - 21.01 - (21.0)
600m - 52.81 - (31.8)
1000m - 1:24.90 - (32.0)
1400m - 1:57.24 - (32.3)
1800m - 2:30.20 - (32.9)
2200m - 3:03.65 - (33.4)
2600m - 3:37.57 - (33.9)
3000m - 4:12.22 - (34.6)
9.38 18
13 55 Bo-Reum  Kim KOR KOR 4:13.61200m - 21.00 - (21.0)
600m - 53.32 - (32.3)
1000m - 1:25.79 - (32.4)
1400m - 1:58.36 - (32.5)
1800m - 2:31.46 - (33.0)
2200m - 3:05.26 - (33.8)
2600m - 3:39.40 - (34.1)
3000m - 4:13.61 - (34.2)
10.77 16
14 86 Katarzyna  Wozniak POL POL 4:15.05200m - 20.70 - (20.7)
600m - 52.72 - (32.0)
1000m - 1:25.38 - (32.6)
1400m - 1:58.09 - (32.7)
1800m - 2:31.20 - (33.1)
2200m - 3:04.86 - (33.6)
2600m - 3:39.37 - (34.5)
3000m - 4:15.05 - (35.6)
12.21 14
15 96 Yuliya  Skokova RUS RUS 4:19.03200m - 20.59 - (20.5)
600m - 53.36 - (32.7)
1000m - 1:26.15 - (32.7)
1400m - 1:59.15 - (33.0)
1800m - 2:32.85 - (33.6)
2200m - 3:07.09 - (34.2)
2600m - 3:42.58 - (35.5)
3000m - 4:19.03 - (36.4)
16.19 12
16 39 Shoko  Fujimura JPN JPN 4:19.58200m - 21.13 - (21.1)
600m - 53.67 - (32.5)
1000m - 1:26.91 - (33.2)
1400m - 2:00.47 - (33.5)
1800m - 2:34.57 - (34.1)
2200m - 3:09.03 - (34.4)
2600m - 3:44.22 - (35.1)
3000m - 4:19.58 - (35.3)
16.74 10